NOAA 14 [-]

Last updated on Fri Dec 29 2023 00:02:19 GMT+0000 (Coordinated Universal Time)

1 23455U 94089A 23361.90208141 .00000113 00000+0 80382-4 0 9998 2 23455 98.4268 2.5240 0009967 152.2083 207.9625 14.14334365495646
UTC large
Height (km)
Speed (km/s)
/
Latitude / Longitude
Inclination (degrees)
Orbital Period (minutes)
Azimuth
Elevation
Range (km)
Doppler Factor

Next 0 passes for location: London (51.5072 / 0.1276)

Sorry there are no passes over London.